Regional Weather Roundup
Issued by NWS

Home | Current Version | Previous Version | Graphics & Text | Print | Product List | Glossary Off
Versions: 1 2 3 4 5 6 7 8 9 10 11 12 13 14 15 16 17 18 19 20 21 22 23 24 25 26 27 28 29 30 31 32 33 34 35 36 37 38 39 40 41 42 43 44 45 46 47 48 49 50

000
ASUS43 KTOP 211959
RWRKS

WEATHER ROUNDUP FOR KANSAS
NATIONAL WEATHER SERVICE GOODLAND KS
300 PM CDT THU AUG 21 2014

NOTE:  "FAIR" INDICATES FEW OR NO CLOUDS BELOW 12,000 FEET WITH NO
SIGNIFICANT WEATHER AND/OR OBSTRUCTIONS TO VISIBILITY.

KSZ001>006-013>018-027>032-041>047-212100-
NORTHWEST KANSAS

CITY           SKY/WX    TMP DP  RH WIND       PRES   REMARKS
GOODLAND       SUNNY     93  47  20 N10       29.98S
HAYS           SUNNY     99  64  32 S18       29.84S HX 101
HILL CITY      SUNNY     96  63  33 N9        29.85F HX  97
RUSSELL        MOSUNNY   98  67  36 S17G29    29.82F HX 102
$$

KSZ061>065-074>080-084>089-212100-
SOUTHWEST KANSAS

CITY           SKY/WX    TMP DP  RH WIND       PRES   REMARKS
DODGE CITY     SUNNY     98  62  30 S18G25    29.87F HX  99
ELKHART          N/A     94  58  30 N5          N/A
GARDEN CITY    SUNNY     93  59  31 SW6       29.89F
GREAT BEND     SUNNY     99  64  32 S21G30    29.84S HX 101
LIBERAL        SUNNY     99  55  23 SW16      29.91S HX  97
$$

KSZ066>073-081>083-090>101-212100-
SOUTHEAST KANSAS

CITY           SKY/WX    TMP DP  RH WIND       PRES   REMARKS
CHANUTE        MOSUNNY   96  70  42 S20G28    29.93F HX 102
COFFEYVILLE    SUNNY     95  73  48 S16G26    29.93F HX 104
HUTCHINSON     SUNNY    100  65  31 S18G28    29.86F HX 103
NEWTON         SUNNY     97  66  36 S23       29.91F HX 100
PARSONS        MOSUNNY   95  73  48 S13G21    29.95F HX 104
WICHITA INTL   MOSUNNY   98  66  34 S23G32    29.87F HX 101
WICHITA JABRA  SUNNY     95  68  41 S22G32    29.88F HX  99
WINFIELD       SUNNY     97  70  41 S21G29    29.92F HX 103
$$

KSZ007>012-019>026-033>040-048>060-102>105-212100-
NORTHEAST KANSAS

CITY           SKY/WX    TMP DP  RH WIND       PRES   REMARKS
CONCORDIA      SUNNY     94  70  45 S16G23    29.82F HX 100
EMPORIA        SUNNY     96  69  41 S18G28    29.88F HX 102
LAWRENCE       SUNNY     97  70  41 S15G25    29.86F HX 103
MANHATTAN      SUNNY    101  68  34 S18G25    29.82F HX 106
OLATHE IND     SUNNY     96  70  42 S17       29.90F HX 102
OLATHE EXE     MOSUNNY   93  72  50 SW13      29.89F HX 101
SALINA         SUNNY     99  67  35 S17G31    29.82F HX 103
TOPEKA BILLARD SUNNY     98  69  38 S15G23    29.85F HX 104
TOPEKA FORBES  SUNNY     99  68  36 S20G25    29.86F HX 104
$$



USA.gov is the U.S. government's official web portal to all federal, state and local government web resources and services.